LFKBLFKJ

Guest
Details From LFKB - Bastia Poretta
To LFKJ - Napoleon Bonaparte
Flight Number -
Tags generated
Created
Modified
Stats Distance 51 nm / 94 km
Max Altitude 400 ft / 122 m
Waypoints 3
Social Downloads 2
Likes 0
Share VATSIM

Download

Looking for another format? Having issues loading an existing format? Contact us
Advertisement - Login to hide

Notes

Basic altitude profile: - Ascent Rate: 800ft/min - Ascent Speed: 170kts - Cruise Altitude: 100000ft - Cruise Speed: 180kts - Descent Rate: 200ft/min - Descent Speed: 170kts Options: - Use NATs: yes - Use PACOTS: yes - Use low airways: yes - Use high airways: yes

Route

LFKB BTA LFKJ

ID Type Via Altitude (ft/m) Position (lat/lon) Dist (leg/tot) Name
O LFKB APT - 0 / 0 42.55251 / 9.48371 - / 0 nm Bastia Poretta
BTA VOR - 400 / 122 42.57369 / 9.47459 1 / 1 nm BASTIA PORETTA VOR-DME
O LFKJ APT - 0 / 0 41.92289 / 8.79959 49 / 50 nm Napoleon Bonaparte

Altitude Profile

Advertisement - Login to hide

LFKB

Details ICAO LFKB (BIA)
Name Bastia Poretta
Region France
Timezone Europe/Paris (UTC+1.0)
Stats Elevation 24 ft / 7 m (AMSL)
Location 42.552600° 9.483750°
Runways 1
Magnetic Variation 2.622° E

METAR

LFKB 220000Z AUTO 24006KT CAVOK 08/02 Q1026 NOSIG

Decode

TAF

TAF LFKB 212000Z 2121/2221 24005KT CAVOK TX19/2213Z TN08/2204Z BECMG 2208/2210 04006KT BECMG 2219/2221 24004KT

Decode

Departure Runways

ID Width Length Bearing (true/mag) Surface Threshold Overrun Markings Lighting
16 148 ft / 45 m 8,273 ft / 2,522 m 162.83° / 160.21° ASPHALT 0 ft / 0 m 102 ft / 31 m APP CENTERLINE EDGE THRESHOLD TDZ REIL-OMNI
34 148 ft / 45 m 8,273 ft / 2,522 m 342.84° / 340.22° ASPHALT 0 ft / 0 m 0 ft / 0 m PREC-APP CENTERLINE EDGE THRESHOLD TDZ REIL-OMNI

LFKJ

Details ICAO LFKJ (AJA)
Name Napoleon Bonaparte
Region France
Timezone Europe/Paris (UTC+1.0)
Stats Elevation 19 ft / 6 m (AMSL)
Location 41.921700° 8.801090°
Runways 1
Magnetic Variation 2.466° E

METAR

LFKJ 220000Z AUTO 05006KT 020V090 CAVOK 07/03 Q1024 NOSIG

Decode

TAF

TAF LFKJ 212000Z 2121/2221 06004KT CAVOK BECMG 2208/2211 22010KT BECMG 2218/2221 06005KT

Decode

Destination Runways

ID Width Length Bearing (true/mag) Surface Threshold Overrun Markings Lighting
02 148 ft / 45 m 7,904 ft / 2,409 m 24.84° / 22.38° CONCRETE 0 ft / 0 m 161 ft / 49 m PREC-APP CENTERLINE EDGE THRESHOLD REIL-OMNI
20 148 ft / 45 m 7,904 ft / 2,409 m 204.85° / 202.38° CONCRETE 741 ft / 226 m 230 ft / 70 m PREC-APP CENTERLINE EDGE THRESHOLD REIL-OMNI

Approach Navaids

Runway Type Ident Frequency Range Bearing (true/mag) Slope Elevation
02 GS AC 110.30 MHz 27 nm / 50 km 24.85° / 22.38 ° 3.00° 19 ft / 6 m (AMSL)
02 LOC-ILS AC 110.30 MHz 27 nm / 50 km 24.85° / 22.38 ° - 19 ft / 6 m (AMSL)
02 OM OM - - 24.94° / 22.48 ° - 17 ft / 5 m (AMSL)
02 DME AC 110.30 MHz 27 nm / 50 km - - 18 ft / 5 m (AMSL)

Popular Alternatives